Location: ???????????
(54.6970°N, 39.1477°E)
Time: 13:01:50
(UTC+00:00)

Okean 3 Rocket - Pass Details

Date: 19 May 2025
Orbit: 610 x 638 km, 82.5° (Epoch: 19 June)

Event Time Altitude Azimuth Distance (km) Brightness Sun altitude
Rises 20:12:39 0° 347° (NNW) 2,900 9.0 -14.0°
Reaches altitude 10° 20:14:52 10° 347° (NNW) 1,994 7.6 -14.1°
Maximum altitude 20:19:17 81° 260° (W) 636 3.6 -14.2°
Enters shadow 20:21:59 23° 176° (S) 1,316 4.6 -14.3°
